Weather History for KCOF - November, 2012

Change the Weather History Date:

Thursday, November 1, 2012

  Actual Average Record
Temperature  
Mean Temperature 69 °F -  
Max Temperature 79 °F 77 °F 89 °F (2013)
Min Temperature 59 °F 67 °F 54 °F (2014)
Cooling Degree Days 4    
Growing Degree Days 19 (Base 50)    
Moisture  
Dew Point 57 °F    
Average Humidity 69    
Maximum Humidity 88    
Minimum Humidity 37    
Precipitation  
Precipitation 0.00 in - - ()
Sea Level Pressure  
Sea Level Pressure 30.00 in    
Wind  
Wind Speed 11 mph (WSW)    
Max Wind Speed 15 mph    
Max Gust Speed -    
Visibility 10 miles    
Events      
Averages and records for this station are not official NWS values.
T = Trace of Precipitation, MM = Missing Value Source: NWS Daily Summary

Daily Weather History Graph

Daily Weather History Graph

Search for Another Location

Airport or City:

Trip Planner

Search our weather history database for the weather conditions in past years. The results will help you decide how hot, cold, wet, or windy it might be!

Date:

Astronomy

Nov. 01, 2012 Rise Set
Actual Time 7:34 AM EDT 6:37 PM EDT
Civil Twilight 7:09 AM EDT 7:01 PM EDT
Nautical Twilight 6:42 AM EDT 7:29 PM EDT
Astronomical Twilight 6:14 AM EDT 7:56 PM EDT
Moon 8:43 PM EDT (11/1) 9:55 AM EDT (11/1)
Length of Visible Light 11h 51m
Length of Day
11h 03m
Waning Gibbous, 93% of the Moon is Illuminated
Nov 1
Waning Gibbous
Nov 6
Last Quarter
Nov 13
New
Nov 20
First Quarter
Nov 28
Full

Hourly Weather History & Observations

Time (EDT) Temp. Dew Point Humidity Pressure Visibility Wind Dir Wind Speed Gust Speed Precip Events Conditions
12:55 AM 61.0 °F 52.0 °F 72% 30.03 in 10.0 mi West 13.8 mph - N/A   Clear
1:55 AM 59.9 °F 52.7 °F 77% 30.02 in 10.0 mi WSW 13.8 mph - N/A   Clear
2:55 AM 59.5 °F 53.6 °F 81% 30.02 in 10.0 mi SW 10.4 mph - N/A   Clear
3:55 AM 59.5 °F 54.1 °F 82% 30.02 in 10.0 mi WSW 10.4 mph - N/A   Clear
4:55 AM 60.1 °F 54.9 °F 83% 30.01 in 10.0 mi WSW 11.5 mph - N/A   Clear
5:55 AM 60.3 °F 55.6 °F 85% 30.01 in 10.0 mi West 10.4 mph - N/A   Clear
6:55 AM 59.4 °F 55.6 °F 87% 30.02 in 10.0 mi WSW 8.1 mph - N/A   Clear
7:55 AM 59.9 °F 56.5 °F 88% 30.02 in 10.0 mi WSW 8.1 mph - N/A   Clear
8:55 AM 63.5 °F 57.6 °F 81% 30.03 in 10.0 mi WSW 5.8 mph - N/A   Clear
9:55 AM 67.8 °F 58.3 °F 71% 30.04 in 10.0 mi West 8.1 mph - N/A   Clear
10:55 AM 71.1 °F 59.2 °F 66% 30.05 in 10.0 mi WNW 8.1 mph - N/A   Clear
11:55 AM 74.8 °F 58.5 °F 57% 30.04 in 10.0 mi West 9.2 mph - N/A   Clear
12:55 PM 77.7 °F 54.1 °F 44% 30.01 in 10.0 mi West 10.4 mph - N/A   Clear
1:55 PM 79.0 °F 50.7 °F 37% 29.97 in 10.0 mi West 15.0 mph - N/A   Clear
2:55 PM 79.2 °F 55.4 °F 44% 29.95 in 10.0 mi WSW 9.2 mph - N/A   Clear
3:55 PM 78.8 °F 55.6 °F 45% 29.94 in 10.0 mi West 11.5 mph - N/A   Clear
4:55 PM 77.9 °F 57.2 °F 49% 29.93 in 10.0 mi WSW 13.8 mph - N/A   Clear
5:55 PM 75.6 °F 58.5 °F 55% 29.94 in 10.0 mi West 12.7 mph - N/A   Clear
6:55 PM 72.3 °F 59.9 °F 65% 29.96 in 10.0 mi West 9.2 mph - N/A   Clear
7:55 PM 69.4 °F 59.9 °F 72% 29.97 in 10.0 mi West 8.1 mph - N/A   Clear
8:55 PM 68.4 °F 59.9 °F 74% 29.98 in 10.0 mi West 9.2 mph - N/A   Clear
9:55 PM 67.5 °F 59.7 °F 76% 30.01 in 10.0 mi WSW 9.2 mph - N/A   Clear
10:55 PM 66.4 °F 60.3 °F 81% 30.02 in 10.0 mi WSW 8.1 mph - N/A   Clear
11:55 PM 64.4 °F 60.3 °F 86% 30.02 in 10.0 mi West 5.8 mph - N/A   Clear